Probability
0 0 0 0 0 0 0 0 0 0 0 0 0 0 0 0 0 0 0 0 0 0 0 0 0 0 0 0 0 0 0 0 0 0 0 0 0 0 0 0 0 0 0 0
0 0 0 0 0 0 0 0 0 0 0 0 0 0 0 0 0 0 0 0 0 0 0 0 0 0 0 0 0 0 0 0 0 0 0 0 0 0 0 0 0 0 0 0
0 0 0 0 0 0 0 0 0 0 0 0 0 0 0 0 0 0 0 0 0 0 0 0 0 0 0 0 0 0 0 0 0 0 0 0 0 0 0 0 0 0 0 0
0 0 0 0 0 0 0 0 0 0 0 0 0 0 0 0 0 0 0 0 0 0 0 0 0 0 0 0 0 0 0 0 0 0 0 0 0 0 0 0 0 0 0 0
0 0 0 0 0 0 0 0 0 0 0 0 0 0 0 0 0 0 0 0 0 0 0 0 0 0 0 0 0 0 0 0 0 0 0 0 0 0 0 0 0 0 0 0
0 0 0 0 0 0 0 0 0 0 0 0 0 0 0 0 0 0 0 0 0 0 0 0 0 0 0 0 0 0 0 0 0 0 0 0 0 0 0 0 0 0 0 0
0 0 0 0 0 0 0 0 0 0 0 0 0 0 0 0 0 0 0 0 0 0 0 0 0 0 0 0 0 0 0 0 0 0 0 0 0 0 0 0 0 0 0 0
0 0 0 0 0 0 0 0 0 0 0 0 0 0 0 0 0 0 0 0 0 0 0 0 0 0 0 0 0 0 0 0 0 0 0 0 0 0 0 0 0 0 0 0
0 0 0 0 0 0 0 0 0 0 0 0 0 0 0 0 0 0 0 0 0 0 0 0 0 0 0 0 0 0 0 0 0 0 0 0 0 0 0 0 0 0 0 0
0 0 0 0 0 0 0 0 0 0 0 0 0 0 0 0 0 0 0 0 0 0 0 0 0 0 0 0 0 0 0 0 0 0 0 0 0 0 0 0 0 0 0 0
0 0 0 0 0 0 0 0 0 0 0 0 0 0 0 0 0 0 0 0 0 0 0 0 0 0 0 0 0 0 0 0 0 0 0 0 0 0 0 0 0 0 0 0
0 0 0 0 0 0 0 0 0 0 0 0 0 0 0 0 0 0 0 0 0 0 0 0 0 0 0 0 0 0 0 0 0 0 0 0 0 0 0 0 0 0 0 0
0 0 0 0 0 0 0 0 0 0 0 0 0 0 0 0 0 0 0 0 0 0 0 0 0 0 0 0 0 0 0 0 0 0 0 0 0 0 0 0 0 0 0 0
0 0 0 0 0 0 0 0 0 0 0 0 0 0 0 0 0 0 0 0 0 0 0 0 0 0 0 0 0 0 0 0 0 0 0 0 0 0 0 0 0 0 0 0
0 0 0 0 0 0 0 0 0 0 0 0 0 0 0 0 0 0 0 0 0 0 0 0 0 0 0 0 0 0 0 0 0 0 0 0 0 0 0 0 0 0 0 0
0 0 0 0 0 0 0 0 0 0 0 0 0 0 0 0 0 0 0 0 0 0 0 0 0 0 0 0 0 0 0 0 0 0 0 0 0 0 0 0 0 0 0 0
0 0 0 0 0 0 0 0 0 0 0 0 0 0 0 0 0 0 0 0 0 0 0 0 0 0 0 0 0 0 0 0 0 0 0 0 0 0 0 0 0 0 0 0
0 0 0 0 0 0 0 0 0 0 0 0 0 0 0 0 0 0 0 0 0 0 0 0 0 0 0 0 0 0 0 0 0 0 0 0 0 0 0 0 0 0 0 0
0 0 0 0 0 0 0 0 0 0 0 0 0 0 0 0 0 0 0 0 0 0 0 0 0 0 0 0 0 0 0 0 0 0 0 0 0 0 0 0 0 0 0 0
0 0 0 0 0 0 0 0 0 0 0 0 0 0 0 0 0 0 0 0 0 0 0 0 0 0 0 0 0 0 0 0 0 0 0 0 0 0 0 0 0 0 0 0
0 0 0 0 0 0 0 0 0 0 0 0 0 0 0 0 0 0 0 0 0 0 0 0 0 0 0 0 0 0 0 0 0 0 0 0 0 0 0 0 0 0 0 0
0 0 0 0 0 0 0 0 0 0 0 0 0 0 0 0 0 0 0 0 0 0 0 0 0 0 0 0 0 0 0 0 0 0 0 0 0 0 0 0 0 0 0 0
0 0 0 0 0 0 0 0 0 0 0 0 0 0 0 0 0 0 0 0 0 0 0 0 0 0 0 0 0 0 0 0 0 0 0 0 0 0 0 0 0 0 0 0
0 0 0 0 0 0 0 0 0 0 0 0 0 0 0 0 0 0 0 0 0 0 0 0 0 0 0 0 0 0 0 0 0 0 0 0 0 0 0 0 0 0 0 0
0 0 0 0 0 0 0 0 0 0 0 0 0 0 0 0 0 0 0 0 0 0 0 0 0 0 0 0 0 0 0 0 0 0 0 0 0 0 0 0 0 0 0 0
0 0 0 0 0 0 0 0 0 0 0 0 0 0 0 0 0 0 0 0 0 0 0 0 0 0 0 0 0 0 0 0 0 0 0 0 0 0 0 0 0 0 0 0
0 0 0 0 0 0 0 0 0 0 0 0 0 0 0 0 0 0 0 0 0 0 0 0 0 0 0 0 0 0 0 0 0 0 0 0 0 0 0 0 0 0 0 0
Wind_Speed
5 5 4 6 8 7 8 8 8 9 9 10 8 7 6 6 5 5 4 4 4 4 4 4 4 4 5 5 5 6 7 7 6 6 6 6 6 6 5 5 5 5 4 4
3 4 5 7 9 9 9 9 9 9 11 8 7 5 5 6 6 5 5 5 5 5 5 5 5 6 6 6 6 7 7 7 6 6 6 6 6 6 6 5 5 5 4 4
3 4 3 7 7 7 6 5 6 8 8 6 6 6 5 5 4 5 6 6 6 5 5 6 6 6 7 7 6 7 7 7 7 7 7 7 7 6 6 5 5 4 4 4
1 2 5 7 2 1 3 3 3 3 4 4 5 5 3 2 3 5 6 6 6 5 5 5 5 5 5 5 7 7 7 7 7 8 7 7 7 6 5 4 4 4 4 4
2 2 8 6 3 1 2 3 2 2 5 6 5 3 3 3 3 4 6 6 6 5 5 4 4 4 5 5 6 7 7 8 8 8 8 8 8 7 5 5 4 4 4 5
2 3 6 5 4 3 1 3 3 4 5 6 5 3 5 7 7 7 7 6 6 5 4 3 3 3 5 6 7 8 8 8 8 8 9 9 8 6 4 4 5 5 4 4
4 5 8 4 3 2 1 4 4 4 4 5 3 5 7 9 8 7 7 7 6 5 4 4 3 3 5 5 7 7 5 6 7 7 7 7 6 5 5 5 5 4 4 4
4 6 9 1 2 2 4 3 3 4 4 5 6 8 8 8 8 7 7 7 5 5 4 3 2 2 3 4 4 4 5 6 6 6 6 6 7 6 6 6 5 5 4 4
8 8 3 2 3 2 1 2 4 4 5 6 7 8 8 8 7 7 7 7 5 4 4 3 2 1 3 3 3 4 5 5 5 6 5 6 7 7 6 5 5 5 5 5
4 5 3 2 1 1 2 3 5 5 6 6 7 8 9 8 7 7 6 5 4 4 4 3 3 1 1 2 3 4 5 5 5 6 5 5 5 6 6 6 6 5 6 5
4 4 2 2 2 3 4 4 5 6 6 6 7 8 8 7 7 6 6 4 3 3 3 3 2 2 1 1 3 4 4 4 4 5 5 5 5 6 7 6 7 7 6 5
6 5 4 5 4 4 4 5 6 6 7 7 6 7 7 7 6 5 5 4 3 3 3 3 2 2 1 0 2 3 3 3 3 4 4 4 4 4 8 8 11 13 11 9
4 3 4 4 4 3 4 6 6 6 7 8 7 6 6 6 5 5 4 4 4 3 3 3 2 2 2 1 1 2 2 3 3 3 4 4 4 4 4 5 9 11 12 13
3 1 2 2 4 4 5 5 6 6 6 6 6 5 5 5 5 4 4 4 3 2 2 2 2 2 2 1 1 1 2 3 3 3 3 4 4 4 4 4 3 4 7 12
3 2 3 3 3 4 4 4 5 6 6 6 5 5 5 5 5 4 4 3 3 2 2 2 2 3 2 1 0 1 1 1 2 2 3 3 3 3 4 4 4 3 3 5
2 2 2 2 4 4 4 5 5 6 6 6 5 5 5 4 4 4 3 3 2 2 2 2 2 3 2 1 0 0 1 2 2 2 2 3 3 3 4 4 4 4 4 4
3 3 3 4 4 5 5 5 5 6 5 5 5 5 4 4 3 4 4 3 2 2 2 2 3 3 2 1 1 1 1 2 2 2 2 2 3 3 3 3 4 4 4 5
5 4 4 4 4 5 5 5 5 4 5 5 4 4 4 3 3 3 4 3 2 2 2 3 3 2 2 2 1 1 1 1 1 2 2 2 3 3 3 3 4 4 3 4
3 3 3 3 3 3 4 4 4 4 4 3 3 3 3 3 3 3 3 2 2 3 3 3 4 2 2 2 2 1 1 1 2 2 2 3 3 3 3 3 4 4 3 3
3 2 2 2 2 3 3 4 4 3 3 3 3 3 3 3 3 3 2 2 2 3 3 3 3 2 2 3 3 1 2 2 2 2 2 2 2 2 3 3 3 4 4 4
3 2 2 3 3 3 3 3 3 4 3 3 3 3 3 3 3 2 2 3 3 3 3 4 2 2 2 3 3 1 2 2 2 2 2 2 2 2 3 3 3 3 3 3
3 3 3 3 3 3 3 2 3 3 3 3 3 3 3 3 3 2 2 3 3 4 2 2 2 4 4 3 1 1 2 2 2 1 2 2 2 2 3 3 3 3 3 3
3 3 3 3 4 3 3 3 3 3 3 4 3 3 3 3 2 2 3 2 2 4 3 2 4 6 6 2 1 1 2 2 2 2 2 2 2 2 3 3 3 3 3 3
3 3 3 3 2 3 4 4 3 3 3 4 4 3 3 3 3 2 3 4 5 4 2 4 6 6 4 1 1 2 2 2 2 2 2 2 2 2 2 3 3 3 3 4
3 3 3 3 3 3 4 4 3 3 3 3 4 3 3 2 3 3 2 3 4 4 2 4 6 5 2 1 2 2 2 2 2 2 2 2 2 2 3 3 3 3 3 3
2 3 3 4 3 3 2 2 2 3 2 3 3 2 2 2 2 3 2 3 3 4 2 2 3 3 2 2 2 2 2 3 3 2 2 3 3 3 3 3 4 4 4 4
2 2 2 2 3 2 2 2 3 3 3 3 3 3 2 2 2 2 3 2 2 2 2 2 2 2 2 2 2 2 2 2 2 3 3 3 3 3 3 4 4 4 4 4
Wind_Direction
242 253 240 243 247 228 220 221 230 252 263 278 291 292 300 307 310 304 287 275 257 248 243 233 222 214 201 193 180 167 162 169 172 162 154 149 148 146 141 140 143 141 136 135
278 267 257 263 256 242 238 236 240 258 269 273 287 301 307 305 302 299 294 284 272 260 250 237 223 216 205 198 188 172 171 176 165 156 155 156 154 149 146 146 145 144 149 150
270 304 330 274 246 224 226 222 216 238 258 289 304 310 302 302 318 314 305 297 286 271 255 244 233 216 207 200 182 175 175 172 165 162 164 163 157 153 157 157 153 155 160 159
254 358 249 247 272 232 229 250 257 264 291 302 291 294 289 291 311 312 314 309 301 287 272 258 238 220 204 183 175 177 176 173 169 166 166 160 159 165 164 158 162 166 170 168
175 249 276 290 307 297 244 268 4 335 333 327 314 321 301 318 324 308 306 301 291 286 276 270 247 214 183 178 176 179 184 182 177 171 167 167 173 175 168 162 167 170 170 171
175 227 252 262 299 305 252 257 1 357 338 334 347 333 300 322 320 310 308 307 303 301 295 285 265 203 177 184 184 195 194 187 177 172 173 178 179 172 164 164 171 169 176 182
200 235 263 265 293 17 174 268 329 330 325 326 306 273 287 306 306 305 304 306 309 309 301 288 274 198 190 192 204 203 180 169 171 174 175 172 166 162 160 162 164 174 184 192
181 216 250 275 95 164 243 296 312 312 308 304 296 295 301 307 307 311 312 311 313 315 310 310 292 195 198 213 206 166 159 166 172 172 169 164 161 163 163 165 173 184 192 202
196 217 231 185 188 211 221 292 295 294 298 297 298 300 304 305 308 310 311 310 311 308 312 319 318 226 212 226 172 156 157 168 169 166 166 163 165 167 168 175 185 194 199 210
240 255 250 255 213 234 274 271 282 284 289 294 294 297 300 302 306 307 306 307 308 309 311 316 322 320 240 204 165 156 165 169 166 168 169 168 172 174 181 189 196 200 206 212
246 268 299 252 239 281 296 299 297 297 295 293 294 295 295 298 302 302 302 307 305 300 300 306 321 332 322 184 160 162 168 171 172 175 174 180 187 193 195 203 200 201 207 204
219 222 215 252 262 283 295 297 299 303 304 302 294 292 296 295 296 300 304 310 316 313 307 310 324 340 353 52 163 167 176 180 181 180 180 184 190 206 217 215 223 225 221 214
209 218 229 257 271 287 292 300 305 300 293 297 297 296 301 302 304 305 310 315 309 308 308 311 316 331 339 341 160 177 188 189 186 186 185 188 190 199 216 226 230 234 233 232
202 172 253 266 289 299 303 307 307 305 303 301 301 301 303 305 309 315 313 310 307 311 318 319 323 327 322 309 183 193 191 196 197 198 194 195 199 202 203 208 220 233 236 236
206 207 236 269 288 300 307 315 318 314 315 315 313 312 312 310 312 316 318 325 333 339 339 339 338 336 339 331 251 226 207 206 203 200 199 199 199 201 206 211 222 228 229 238
226 251 253 272 291 301 307 310 307 303 307 311 314 317 313 309 311 321 331 338 336 330 335 339 335 333 337 336 304 251 241 237 216 204 203 203 203 207 213 218 223 224 226 227
185 232 256 279 287 296 297 294 291 292 299 302 306 314 319 325 331 334 337 342 345 341 338 339 327 329 336 335 316 271 253 245 232 217 213 213 215 217 219 222 227 231 232 230
202 215 230 248 265 282 291 295 295 298 297 300 312 316 316 314 313 315 321 331 343 345 336 323 319 328 333 330 321 303 271 253 235 232 226 221 224 222 225 230 236 241 242 243
200 211 238 257 265 271 279 289 295 297 299 303 308 309 310 310 310 310 315 321 322 318 319 323 331 341 329 319 321 294 278 268 258 248 242 250 244 232 232 235 241 243 244 240
201 216 240 263 274 274 279 289 293 294 294 293 298 305 307 308 309 311 318 314 299 293 305 318 327 325 318 311 315 294 280 271 267 261 247 247 252 249 245 246 247 249 247 245
208 224 247 258 270 277 276 286 294 294 295 291 284 282 287 299 307 307 304 301 304 307 313 320 319 306 301 306 311 306 292 282 275 268 261 257 259 258 256 255 257 258 256 256
208 218 234 248 264 275 281 284 283 287 291 289 285 285 291 299 305 302 279 269 289 309 312 303 299 304 310 315 303 293 291 287 282 279 273 271 268 268 266 263 261 264 264 262
215 224 233 241 250 264 278 277 272 272 275 275 274 273 272 275 277 277 287 286 286 305 307 291 301 309 316 323 300 290 289 285 281 276 274 273 271 270 271 271 268 270 270 270
223 232 241 250 254 257 268 272 270 266 268 271 264 259 259 270 275 257 259 291 301 307 303 305 312 311 319 318 291 286 286 286 283 281 278 275 273 273 275 279 279 276 272 273
225 234 239 246 248 249 255 265 272 270 272 273 271 266 256 244 252 272 274 278 291 303 305 314 320 321 319 294 288 285 284 281 279 282 279 280 278 276 275 275 275 278 278 276
219 230 237 238 242 248 250 251 253 257 261 272 276 267 261 263 265 271 273 276 282 296 297 297 306 313 304 292 286 286 284 294 302 296 283 280 278 277 276 276 277 274 274 274
233 240 247 260 260 248 244 243 249 256 252 254 268 266 259 264 266 267 269 272 277 281 282 285 288 289 290 290 287 284 281 279 279 279 278 274 272 271 274 276 275 275 275 274